GFSCGP_sfc_rhum_162.txt.gz
RH
78 86 92 72 67 54 54 63 60 53 60 61 68 71 62 54 56 53 53 54 51 49 60 64 62 63 60 62 61 63 66 68 70 84 96 97 99 94 92 81 74 71 77 80
87 84 72 68 67 68 67 62 59 62 62 61 65 67 59 55 50 48 45 48 47 65 66 63 64 63 62 66 63 62 61 61 61 68 83 91 90 81 78 65 60 59 67 71
90 68 60 65 66 68 64 63 62 65 64 60 62 56 52 44 50 46 45 43 42 59 66 65 65 66 69 69 65 58 56 54 54 58 72 71 72 67 69 66 56 57 57 63
86 66 70 74 69 61 74 59 59 68 76 76 61 63 61 46 40 49 50 55 61 62 61 60 62 64 67 68 62 58 54 50 45 52 59 54 59 61 57 55 53 52 54 58
81 75 74 76 68 60 69 60 64 69 81 84 83 79 55 56 48 45 60 62 63 62 61 61 63 60 60 60 61 59 55 50 49 50 56 59 56 54 53 55 53 51 55 59
74 80 68 66 65 59 62 67 71 80 81 98 78 63 49 52 44 52 62 64 65 63 62 61 61 56 56 56 57 58 56 53 50 50 52 55 56 53 56 58 65 65 63 64
89 84 85 71 76 75 70 74 97 97 96 92 68 76 56 42 39 46 57 66 66 62 62 61 60 58 55 54 53 52 56 55 50 50 52 55 56 58 62 66 67 67 68 68
94 92 83 75 73 80 76 72 90 79 94 84 76 80 54 44 48 46 53 60 63 63 62 61 59 58 54 52 53 53 55 55 52 50 52 54 56 60 62 63 67 69 68 69
93 84 84 85 72 68 85 89 70 86 95 92 80 64 41 56 58 65 68 66 68 65 64 61 58 56 54 52 53 54 54 56 54 52 53 55 57 59 62 63 65 69 67 57
75 96 84 84 72 73 80 68 88 89 93 96 76 71 50 48 50 71 74 72 68 67 65 62 57 54 54 52 51 54 53 55 55 54 53 55 58 60 62 65 68 68 69 69
61 79 94 80 85 80 77 82 77 79 86 83 83 60 43 56 57 66 68 65 68 68 65 62 60 55 54 53 53 54 55 55 56 55 57 60 62 61 64 67 69 69 70 70
69 86 98 96 77 67 63 70 74 88 85 90 84 69 47 53 55 57 60 62 68 66 66 64 60 59 55 54 54 56 56 57 57 57 58 61 61 64 67 68 69 70 71 74
74 99 98 99 97 77 89 78 69 70 81 86 86 71 53 54 56 55 57 60 62 64 65 65 62 61 56 54 54 56 58 58 58 59 61 64 66 69 72 72 70 71 72 73
66 96 79 72 71 74 86 79 75 75 95 83 75 76 60 58 57 50 56 55 58 63 64 68 65 58 59 55 52 54 57 57 61 63 65 68 69 71 73 74 74 76 73 76
89 99 86 66 66 71 76 70 68 82 74 79 73 74 61 52 56 53 51 57 60 58 62 67 64 63 59 61 54 52 56 59 63 65 67 70 70 72 74 74 75 76 72 75
86 99 97 98 72 64 66 67 78 79 75 77 72 71 53 50 55 54 51 47 46 47 50 60 67 65 60 54 51 49 53 62 61 65 68 70 71 72 73 74 77 74 71 69
93 88 91 90 81 73 84 76 69 66 62 62 75 57 55 50 47 46 44 46 49 52 53 56 62 70 67 56 48 53 58 63 66 69 70 73 75 76 76 76 75 72 74 79
84 83 90 92 87 96 61 51 52 56 51 55 51 47 41 44 44 50 52 56 53 56 63 69 79 82 74 58 58 60 66 69 72 74 74 77 78 85 88 87 89 89 82 83
70 85 99 92 96 72 62 51 58 61 52 47 48 43 47 49 53 43 45 55 58 64 68 74 71 67 66 66 66 71 78 80 82 86 89 88 84 88 90 88 92 90 86 83
71 76 78 95 94 96 61 49 42 40 52 35 40 41 38 41 44 40 40 67 66 68 71 72 82 85 82 88 77 78 85 86 91 89 89 88 87 90 92 95 95 94 88 83
95 95 91 99 96 85 60 49 42 65 47 42 39 37 41 44 40 48 62 66 67 71 81 94 95 96 96 93 86 91 93 94 92 92 93 94 94 96 95 95 93 91 90 85
88 95 97 97 97 89 62 54 44 34 51 36 40 39 43 49 52 66 70 69 72 83 92 90 96 97 98 93 87 93 95 95 92 92 94 95 96 95 94 95 94 94 92 93
87 77 85 78 75 58 62 45 46 51 46 45 45 46 48 55 60 62 75 79 78 87 93 95 95 98 98 96 91 94 98 94 94 95 96 96 96 96 94 94 94 92 92 89
80 85 79 75 69 68 56 55 54 52 51 50 55 56 63 62 68 73 79 80 86 91 95 95 97 99 100 98 93 90 93 94 94 95 95 95 95 96 95 89 85 88 91 91
79 76 76 80 68 77 69 62 53 53 62 64 64 62 65 73 74 78 81 85 89 93 95 95 95 97 99 97 96 94 94 94 94 95 95 95 92 94 94 88 88 84 86 84
82 72 63 64 67 66 46 48 67 69 68 68 74 81 77 77 78 86 88 91 92 95 96 97 96 96 97 95 95 95 95 94 93 95 93 91 90 89 83 85 88 64 67 62

GFSCGP_sfc_rhum_165.txt.gz
RH
84 89 89 70 64 62 67 64 55 52 47 67 71 69 61 55 61 60 58 55 54 54 70 67 63 64 62 62 61 63 64 62 68 80 96 98 89 91 73 66 71 73 76 77
87 92 77 72 73 71 78 69 67 65 66 64 73 67 59 56 57 51 46 51 56 70 72 67 66 66 66 64 60 58 57 55 60 68 80 85 93 74 66 64 61 63 66 73
89 63 62 70 83 82 82 76 74 70 66 65 58 53 51 45 55 50 51 48 52 64 72 72 68 69 66 64 61 56 53 52 56 61 78 72 73 72 74 60 54 59 59 66
86 70 66 82 77 73 86 63 61 75 74 78 72 70 56 44 45 44 54 52 56 73 71 68 68 68 66 64 60 55 53 52 50 58 57 65 68 71 67 55 50 53 56 60
79 84 82 83 75 62 68 66 69 77 84 86 86 81 55 54 44 40 62 66 71 71 68 68 67 62 63 61 63 57 53 52 53 55 58 63 58 58 58 55 51 50 54 62
76 81 70 70 67 61 64 72 76 83 85 97 83 61 47 42 48 60 69 70 68 67 66 65 61 56 57 57 59 56 51 52 52 54 56 57 61 62 66 61 62 64 66 69
89 86 86 74 78 78 72 76 96 98 96 89 78 83 64 43 43 44 62 70 71 68 68 65 60 58 55 55 54 53 53 51 51 53 56 58 60 62 64 66 68 68 69 73
88 96 86 78 74 80 84 69 87 79 89 82 81 89 59 54 58 55 60 69 68 68 64 61 60 60 54 52 54 56 56 53 51 54 57 60 60 65 67 66 70 72 74 76
93 84 87 85 79 67 85 81 64 87 96 94 83 68 49 56 65 70 71 69 71 68 66 63 62 60 56 54 54 55 56 56 54 54 57 59 61 62 66 68 70 74 70 66
80 94 88 88 75 75 81 69 88 92 95 98 78 72 57 50 56 77 75 71 67 65 64 64 61 57 56 55 53 55 55 56 56 55 56 58 62 65 68 69 72 73 75 77
74 81 94 87 88 80 79 84 80 78 86 84 84 63 48 56 60 71 74 68 67 67 67 66 62 58 56 54 53 55 56 56 57 57 60 64 66 67 69 72 73 74 76 79
72 84 86 86 87 81 71 79 79 88 92 91 84 68 50 53 63 66 69 66 68 66 65 66 64 62 58 56 56 56 57 58 59 58 61 65 66 69 72 73 74 76 79 78
77 90 99 100 96 80 82 73 73 69 81 88 87 70 57 60 60 62 60 61 57 61 67 70 69 66 62 58 57 56 59 60 61 61 64 66 68 72 74 75 76 76 78 78
72 96 81 79 79 87 99 92 78 71 97 81 77 71 58 60 58 57 56 55 57 61 64 68 70 67 65 62 57 57 60 60 64 64 66 68 71 73 75 76 78 78 80 80
84 98 94 77 72 83 77 85 84 87 84 85 76 70 56 52 54 49 47 53 56 56 58 65 71 73 68 67 62 58 60 62 65 65 68 72 73 75 77 78 80 78 78 77
86 99 93 93 83 71 70 77 76 78 77 82 82 79 54 49 52 54 52 52 48 45 47 52 62 70 73 65 65 56 57 63 66 68 70 72 74 75 77 80 80 78 78 76
91 97 97 97 93 90 91 79 75 80 72 66 77 60 58 55 53 53 51 46 46 48 54 57 64 71 76 80 63 59 60 65 67 69 70 74 75 77 81 80 78 74 79 79
97 88 88 95 92 96 66 55 60 63 61 61 60 51 54 49 44 43 43 45 50 55 50 59 69 72 81 68 63 63 66 67 70 74 75 79 80 84 87 85 87 84 82 83
72 82 98 90 97 71 63 53 58 66 56 52 56 49 49 53 53 42 46 54 52 52 61 67 70 68 69 68 73 74 78 79 80 84 86 87 87 92 91 90 91 92 88 91
77 74 78 97 92 93 59 50 52 42 55 36 50 50 52 44 49 34 36 46 59 63 66 70 82 87 86 93 82 81 84 83 88 90 91 91 91 92 91 93 93 95 94 92
97 95 86 100 96 83 59 52 45 60 48 42 46 44 48 45 37 38 43 56 66 68 75 92 94 91 91 94 89 92 93 91 93 94 95 96 95 92 92 95 95 96 96 92
94 96 98 99 96 85 61 58 49 41 45 37 43 44 43 44 43 55 54 58 64 72 86 89 93 94 96 93 86 92 92 96 94 94 95 96 95 93 94 95 96 96 94 94
84 76 81 73 72 58 66 47 46 47 41 43 39 40 40 46 51 53 66 74 73 77 90 94 93 96 98 95 90 93 98 96 95 94 96 95 96 96 95 96 96 95 94 92
84 87 82 76 68 71 59 60 59 53 51 50 51 50 54 52 57 60 70 77 83 89 91 95 96 97 99 97 94 93 95 94 94 95 95 95 95 96 96 94 91 92 93 95
81 79 82 80 73 70 67 60 51 55 59 68 68 60 57 64 65 72 75 80 87 89 95 95 94 95 96 97 96 95 95 93 94 94 94 94 93 94 96 91 90 87 90 85
84 76 69 70 59 63 44 71 61 65 59 57 61 63 74 78 72 83 82 86 89 92 96 96 96 96 97 98 98 97 94 92 93 94 94 93 93 94 91 91 94 64 70 68

GFSCGP_sfc_rhum_168.txt.gz
RH
82 87 86 74 59 58 67 61 56 58 48 76 76 72 59 52 69 61 63 62 58 54 72 68 66 68 65 62 62 63 62 60 68 81 97 93 88 77 69 64 67 69 78 78
88 92 79 70 65 69 70 72 73 70 73 73 76 74 64 59 57 54 50 56 56 69 76 68 68 69 65 63 61 60 58 57 61 69 83 91 77 64 58 59 63 65 71 77
85 60 72 76 86 77 83 77 76 76 70 73 66 63 55 47 59 56 53 49 53 62 74 74 69 71 66 64 62 57 56 56 58 63 85 81 70 69 66 59 62 64 63 70
82 73 76 82 86 82 90 69 65 78 74 77 72 73 65 51 48 45 45 57 59 70 78 76 71 70 68 66 60 56 55 55 51 59 72 86 86 77 72 61 59 60 57 62
63 87 83 82 74 69 75 70 71 79 84 86 87 87 65 52 46 39 55 65 74 79 74 74 71 63 64 63 63 57 55 54 55 57 62 70 71 73 68 62 59 59 58 62
76 82 76 71 73 62 69 74 76 85 85 95 81 74 51 37 46 49 76 81 75 76 76 72 65 59 59 59 60 56 51 54 55 56 59 62 67 68 69 63 65 66 69 73
89 88 87 78 79 79 76 73 95 96 96 87 76 86 66 47 45 50 54 81 79 73 71 69 64 61 59 58 57 54 51 52 55 57 60 62 64 64 64 66 67 66 69 78
95 95 88 79 76 83 86 64 83 65 87 77 82 85 58 57 75 71 67 77 73 71 68 65 62 60 56 57 56 58 56 52 54 57 60 62 62 66 69 67 70 74 79 83
94 80 88 86 80 72 85 79 62 86 96 95 84 71 49 59 75 78 78 74 74 71 69 67 65 62 58 54 54 55 57 57 54 56 60 61 62 64 68 69 72 76 76 71
79 86 90 89 79 77 79 71 86 93 89 98 79 74 58 52 64 84 82 78 73 74 70 65 63 62 60 58 56 57 57 57 56 57 59 61 65 67 69 70 74 78 81 79
75 75 91 88 89 84 81 88 82 79 87 88 85 64 54 60 66 71 77 72 70 68 67 66 66 62 60 58 56 57 57 57 59 59 63 65 67 68 71 74 76 79 82 79
73 80 99 83 88 88 82 82 81 90 92 90 84 74 56 59 73 70 72 68 73 67 65 66 66 65 63 60 58 56 57 58 58 59 62 65 66 70 72 75 79 82 83 82
79 90 97 95 91 86 84 73 78 77 83 91 90 78 57 72 74 73 69 68 65 69 71 67 70 68 65 62 59 56 57 58 62 61 64 67 69 72 74 78 78 80 81 83
70 91 79 84 72 86 98 82 74 74 86 82 78 75 72 68 64 66 64 60 60 56 59 67 70 69 67 64 60 57 57 58 64 64 67 68 72 73 76 78 79 81 82 82
81 98 93 86 79 87 90 86 90 79 76 79 79 65 57 52 54 51 50 53 54 55 56 56 60 64 66 70 69 62 60 62 65 67 68 70 74 76 80 82 81 82 79 80
85 99 92 97 84 76 78 87 88 83 82 82 88 90 61 47 54 61 57 54 59 56 46 46 53 61 68 71 69 64 58 62 63 66 69 73 76 78 82 82 82 81 80 82
90 97 96 94 95 87 91 82 84 86 91 86 97 75 64 61 56 53 52 60 57 44 44 52 53 62 69 77 80 70 64 67 68 68 70 74 76 78 83 81 80 79 82 79
90 87 92 98 94 97 69 62 61 68 73 67 71 66 61 53 52 59 54 45 42 45 51 49 57 62 64 64 65 65 68 70 70 72 73 78 81 84 87 85 88 90 84 88
79 87 96 95 98 73 64 55 68 71 63 58 64 59 57 56 54 48 47 49 47 49 48 54 61 62 65 65 70 74 81 82 79 80 82 84 84 89 91 94 92 90 90 90
74 75 82 98 88 87 56 52 54 44 59 40 53 54 62 50 64 46 43 48 52 54 59 62 74 78 78 81 78 80 85 86 88 87 86 86 87 91 93 94 94 91 91 90
97 94 84 100 91 79 58 55 44 61 48 43 54 54 63 55 44 37 38 47 56 64 68 82 84 81 84 90 89 90 92 89 90 92 93 94 93 93 93 94 95 94 96 93
86 93 93 96 92 83 61 60 45 42 48 39 47 48 56 53 47 48 46 49 59 64 79 85 85 86 91 90 89 91 92 93 95 95 96 97 96 94 94 94 96 96 94 95
85 80 86 74 71 59 65 61 55 51 41 39 40 41 46 47 46 49 51 54 59 70 86 92 89 90 94 96 92 92 93 96 96 96 98 98 97 95 95 95 96 95 95 93
86 89 85 73 77 71 62 60 61 52 43 54 46 43 46 42 47 50 60 66 74 85 86 91 93 93 93 96 93 91 95 94 94 97 97 96 95 96 96 94 93 94 94 94
86 81 86 79 86 73 70 64 54 51 66 65 65 54 51 56 57 63 64 71 79 83 92 91 90 90 90 95 96 96 95 94 95 94 95 95 95 95 95 94 93 93 95 88
86 82 79 78 75 68 56 69 70 64 58 59 63 71 77 73 67 76 73 77 83 86 94 94 93 93 94 96 96 98 95 92 93 95 93 94 94 94 94 94 96 78 76 69

GFSCGP_sfc_rhum_171.txt.gz
RH
83 85 86 78 60 51 63 55 53 55 50 70 68 69 56 54 56 56 53 54 53 49 63 62 61 59 58 57 57 57 56 57 62 72 91 86 82 71 67 63 65 65 72 73
85 91 74 66 61 60 60 59 60 61 70 68 72 68 59 60 56 54 50 52 52 58 70 65 61 59 58 56 57 56 55 54 59 65 75 83 70 61 57 57 57 58 63 69
78 60 73 77 81 70 79 65 69 60 68 67 64 54 52 44 60 55 54 50 50 52 66 68 65 62 59 57 56 54 54 53 55 63 81 71 66 64 64 56 55 57 58 64
76 74 82 84 87 74 80 68 65 75 72 66 66 48 64 47 44 44 43 50 56 58 71 70 65 62 59 58 54 52 54 52 50 58 75 79 79 73 61 53 53 55 58 62
71 85 85 87 75 74 77 72 71 78 81 84 80 82 64 44 37 42 54 63 69 68 73 70 66 63 59 59 55 52 52 51 53 55 62 66 67 64 57 54 53 54 59 66
80 81 74 68 73 66 74 74 77 83 82 90 75 69 49 33 34 48 58 72 75 78 75 69 64 60 57 58 56 52 50 51 52 54 57 62 65 62 59 56 54 54 58 66
87 89 87 75 80 79 77 66 92 79 96 63 73 83 64 48 46 51 56 75 77 76 71 66 61 58 55 56 56 51 48 50 52 53 55 58 59 58 57 56 55 58 60 70
94 88 89 80 75 82 86 58 71 45 74 61 78 77 51 60 73 73 73 76 74 72 68 64 60 58 54 54 56 55 50 48 51 53 55 57 57 56 58 58 61 66 70 72
87 73 88 86 79 70 83 81 58 84 96 96 79 67 48 66 72 76 78 73 73 70 68 63 61 58 55 53 55 54 53 50 50 52 54 55 56 56 58 62 63 66 70 62
74 89 90 90 78 78 76 70 85 90 82 94 70 70 49 53 62 79 79 74 71 68 66 63 60 60 59 55 54 53 53 51 50 52 53 55 58 60 61 63 69 72 70 68
70 73 94 88 87 89 82 85 83 77 82 80 81 55 53 53 58 68 75 72 69 67 65 64 63 62 60 58 55 53 54 53 54 54 56 60 61 62 63 66 70 74 70 69
71 80 97 84 90 86 83 82 78 85 90 90 80 69 58 61 64 67 74 71 69 66 64 65 66 65 62 60 58 55 55 56 57 56 57 60 62 63 65 68 72 73 73 72
77 89 99 95 90 83 85 75 77 76 82 92 87 70 54 70 75 72 72 70 67 66 67 69 71 69 65 61 60 56 55 56 60 58 60 61 62 63 65 69 72 72 74 73
68 85 76 76 70 83 95 85 72 70 86 84 79 72 70 68 69 70 68 68 58 54 53 59 64 62 62 63 61 57 55 55 61 60 61 62 64 64 67 70 73 73 74 74
71 92 84 76 76 87 87 82 86 78 69 82 73 69 55 57 55 56 59 60 56 54 52 53 53 54 55 61 65 61 57 57 60 60 61 62 66 68 72 74 75 75 73 73
83 98 88 98 82 79 83 84 85 79 74 75 76 75 55 50 58 58 55 54 60 60 54 46 47 52 57 61 65 66 61 62 60 60 61 64 69 71 75 75 76 75 76 78
89 96 96 96 94 84 90 80 84 85 80 72 84 64 74 62 59 64 60 64 61 59 56 44 49 55 60 66 71 71 65 63 63 63 65 69 71 75 79 76 76 76 80 79
86 85 92 97 94 96 67 63 66 67 69 78 74 74 66 60 57 61 64 57 59 59 51 47 55 59 66 63 61 65 66 69 69 69 69 75 78 81 84 82 82 82 83 84
78 83 97 96 99 76 60 57 73 78 70 71 79 70 70 70 61 57 56 61 56 51 48 54 55 61 62 62 66 72 79 80 79 79 79 81 82 86 87 86 87 87 88 87
71 74 82 96 95 95 64 55 65 56 72 55 60 67 75 59 74 52 55 52 50 53 56 61 69 74 74 74 75 78 81 83 83 82 80 81 82 86 88 88 91 90 89 88
97 97 94 96 89 79 55 59 50 64 51 46 63 59 72 62 50 44 46 54 58 62 64 79 84 80 82 86 87 87 89 87 86 89 89 89 87 90 90 92 92 93 94 93
88 94 96 96 93 87 62 60 49 46 46 48 56 61 66 62 51 45 40 45 56 63 78 81 81 80 85 87 87 86 87 87 92 92 92 93 94 91 93 94 96 94 95 95
84 80 88 73 74 61 63 60 52 51 40 39 42 46 55 58 52 48 46 52 55 61 76 87 82 83 90 92 91 88 90 93 96 95 96 96 96 96 95 95 96 95 94 93
85 90 84 72 79 72 60 60 56 53 47 50 54 46 49 45 46 47 50 52 57 78 78 85 90 89 85 90 91 88 92 94 94 95 96 97 96 97 96 91 91 92 93 93
88 80 86 85 83 81 75 64 55 56 63 63 60 51 45 46 49 51 56 63 72 73 84 90 85 83 80 91 92 94 95 94 95 94 96 96 94 94 94 94 92 90 92 89
90 84 80 82 72 69 56 72 72 70 63 62 60 70 74 68 62 74 72 72 74 77 86 89 88 89 87 92 95 96 95 92 93 96 96 94 93 92 93 94 95 92 92 85